Find SaudiComsat-3

NORAD ID: 31125 Int'l Des: 2007-012 Owner: KACST Country: SA operational
LEOCIRCULARRETROGRADESSO

現在のビュー

3D地球を読み込み中...

About SaudiComsat-3

SaudiComsat-3 (NORAD 31125) is a satellite launched Apr 17, 2007 by KACST of SA. It operates in LEO, CIRCULAR, RETROGRADE, SSO orbit with a mass of 12.00 kg.

次回通過

Passes for default location (London). Set your location on the main map for personalized predictions.

高度履歴

Loading altitude history...

軌道要素

1 31125U 07012J 26195.19258281 .00000380 00000-0 70434-4 0 9994
2 31125 98.3163 171.1677 0038335 328.4595 31.4313 14.70748875 28794
Epoch: Jul 14, 2026 • Age: 9 hours

現在のステータス

高度 676.1 km
遠地点 / 近地点 N/A
速度 7.52 km/s
衛星直下点 -76.34°S, 172.92°E
打ち上げ日 Apr 17, 2007
運用期間 19.2 years
タイプ other

技術仕様

分類 Payload
質量 12.00 kg
乾燥質量 12.00 kg
総質量 12.00 kg
長さ 0.20 m
直径 0.20 m
スパン 0.20 m
形状 Box
製造者 KACST
バスタイプ Saudisat
フェーズステータス In Orbit
所有者/国 KACST/SA

Most Searched